{"data":{"norad_id":60034,"intl_designator":"2024-111U","name":"STARLINK-32005","alt_names":[],"object_type":"PAYLOAD","status":"ACTIVE","operator":null,"country":"US","launch_date":"2024-06-08","launch_site_code":"AFETR","launch_vehicle":null,"mission":null,"orbit_class":"UNKNOWN","rcs_meters":null,"size_class":null,"mass_kg":null,"dimensions":null,"purposes":["comms"],"wikipedia_slug":null,"has_3d_model":false,"image_url":null,"decayed_at":null,"tle_current":{"epoch":"2026-05-25T02:27:50.605056Z","epoch_age_seconds":60058,"freshness":"FRESH","line1":"1 60034U 24111U   26145.10266904  .00000339  00000+0  23566-4 0  9998","line2":"2 60034  53.1603  80.6243 0001205  87.5150 272.5989 15.30193952110631","mean_motion":15.30193952,"eccentricity":0.0001205,"inclination_deg":53.1603,"raan_deg":80.6243,"arg_perigee_deg":87.515,"mean_anomaly_deg":272.5989,"bstar":2.3566e-5,"rev_number":11063,"period_min":94.105717652189,"perigee_km":474.40729661625,"apogee_km":476.05895881703,"semimajor_km":6853.3701277166,"source":"CELESTRAK","updated_at":"2026-05-25T13:38:19.134326Z"}}}